Orbital Elements at Epoch 2459200.5 (2020-Dec-17.0) TDB
Reference: JPL 18 (heliocentric ecliptic J2000)
Element | Value | Uncertainty (1-sigma) | Units |
e | .06401788301202241 | 4.3825e-08 | |
a | 2.759473500431934 | 2.1963e-08 | au |
q | 2.582817848706507 | 1.2449e-07 | au |
i | 2.523687642924134 | 5.5318e-06 | deg |
node | 143.6139122185454 | 9.9153e-05 | deg |
peri | 248.0628410216378 | 0.0001074 | deg |
M | 134.1304501333942 | 4.1152e-05 | deg |
tp | 2458576.675180062446 (2019-Apr-03.17518006) | 0.00019039 | TDB |
period | 1674.317315376005 4.58 | 1.9989e-05 5.473e-08 | d yr |
n | .215013006611088 | 2.567e-09 | deg/d |
Q | 2.936129152157362 | 2.3369e-08 | au |
|
| | Orbit Determination Parameters
Additional Information
|